{"data":{"norad_id":61789,"intl_designator":"2024-199BG","name":"SITRO-AIS 17","alt_names":[],"object_type":"PAYLOAD","status":"ACTIVE","operator":null,"country":"CIS","launch_date":"2024-11-04","launch_site_code":"VOSTO","launch_vehicle":null,"mission":null,"orbit_class":"UNKNOWN","rcs_meters":null,"size_class":null,"mass_kg":null,"dimensions":null,"purposes":[],"wikipedia_slug":null,"has_3d_model":false,"image_url":null,"decayed_at":null,"tle_current":{"epoch":"2026-09-22T20:59:52.732032Z","epoch_age_seconds":96869,"freshness":"FRESH","line1":"1 61789U 24199BG  26265.87491588  .00001697  00000+0  14688-3 0  9999","line2":"2 61789  97.3176  99.4677 0007361 102.7180 257.4867 14.98349292146667","mean_motion":14.98349292,"eccentricity":0.0007361,"inclination_deg":97.3176,"raan_deg":99.4677,"arg_perigee_deg":102.718,"mean_anomaly_deg":257.4867,"bstar":0.00014688,"rev_number":14666,"period_min":96.105761699789,"perigee_km":566.88023959337,"apogee_km":577.1122257385,"semimajor_km":6950.1332326659,"source":"CELESTRAK","updated_at":"2026-09-23T09:00:21.041570Z"}}}